Weather History for OJAQ - January, 2014

Change the Weather History Date:

Sunday, January 12, 2014

  Actual Average (LLET) Record (LLET)
Temperature  
Mean Temperature 59 °F -  
Max Temperature 68 °F 67 °F 84 °F (2003)
Min Temperature 50 °F 50 °F 41 °F (2008)
Degree Days  
Heating Degree Days 6    
Growing Degree Days 9 (Base 50)    
Moisture  
Dew Point 45 °F    
Average Humidity 60    
Maximum Humidity 94    
Minimum Humidity 28    
Precipitation  
Precipitation 0.00 in - - ()
Sea Level Pressure  
Sea Level Pressure 30.25 in    
Wind  
Wind Speed 4 mph ()    
Max Wind Speed 13 mph    
Max Gust Speed -    
Visibility 6.1 miles    
Events      
Averages and records for this station are not official NWS values.
T = Trace of Precipitation, MM = Missing Value Source: Averaged Metar Reports

Daily Weather History Graph

Daily Weather History Graph

Search for Another Location

Airport or City:

Trip Planner

Search our weather history database for the weather conditions in past years. The results will help you decide how hot, cold, wet, or windy it might be!

Date:

Astronomy

Jan. 12, 2014 Rise Set
Actual Time 6:36 AM EET 5:00 PM EET
Civil Twilight 6:10 AM EET 5:26 PM EET
Nautical Twilight 5:40 AM EET 5:55 PM EET
Astronomical Twilight 5:12 AM EET 6:24 PM EET
Moon 2:10 PM EET (1/12) 3:18 AM EET (1/12)
Length of Visible Light 11h 16m
Length of Day
10h 24m
Waxing Gibbous, 88% of the Moon is Illuminated
Jan 12
Waxing Gibbous
Jan 16
Full
Jan 24
Last Quarter
Jan 30
New
Feb 6
First Quarter

Hourly Weather History & Observations

Time (EET) Temp. Dew Point Humidity Pressure Visibility Wind Dir Wind Speed Gust Speed Precip Events Conditions
2:00 AM 57.2 °F 50.0 °F 77% 30.27 in 6.2 mi NNW 6.9 mph - N/A   Scattered Clouds
5:00 AM 53 °F 49 °F 80% 30.27 in 6 mi Calm Calm - -   Scattered Clouds
5:00 AM 53.6 °F 48.2 °F 82% 30.27 in 6.2 mi Calm Calm - N/A   Partly Cloudy
7:00 AM 51.8 °F 50.0 °F 94% 30.30 in 6.2 mi Calm Calm - N/A   Scattered Clouds
8:00 AM 50 °F 47 °F 84% 30.32 in 6 mi Calm Calm - -   Clear
8:00 AM 50.0 °F 46.4 °F 87% 30.33 in - Calm Calm - N/A   Clear
9:00 AM 53.6 °F 46.4 °F 77% 30.33 in - NNE 6.9 mph - N/A   Clear
10:00 AM 57.2 °F 42.8 °F 59% 30.33 in - North 6.9 mph - N/A   Clear
11:00 AM 59 °F 47 °F 56% 30.30 in 6 mi North 13.4 mph - -   Clear
11:00 AM 59.0 °F 48.2 °F 67% 30.30 in - North 6.9 mph - N/A   Clear
12:00 PM 62.6 °F 42.8 °F 48% 30.27 in - North 6.9 mph - N/A   Clear
1:00 PM 64.4 °F 41.0 °F 42% 30.21 in - North 6.9 mph - N/A   Clear
2:00 PM 66 °F 41 °F 28% 30.20 in 6 mi North 6.9 mph - -   Clear
2:00 PM 66.2 °F 41.0 °F 40% 30.21 in - North 6.9 mph - N/A   Clear
5:00 PM 65 °F 41 °F 30%  in 6 mi NNE 11.2 mph - -  
5:00 PM 66.2 °F 41.0 °F 40% 30.18 in - NNE 5.8 mph - N/A   Clear
6:00 PM 64.4 °F 42.8 °F 45% 30.18 in - North 8.1 mph - N/A   Clear
8:00 PM 59 °F 45 °F 48% 30.21 in 6 mi North 8.1 mph - -  
8:00 PM 59.0 °F 44.6 °F 59% 30.18 in - North 8.1 mph - N/A   Clear
9:00 PM 59.0 °F 44.6 °F 59% 30.18 in - North 6.9 mph - N/A   Clear
10:00 PM 55.4 °F 44.6 °F 67% 30.21 in - NNE 4.6 mph - N/A   Clear
11:00 PM 56 °F 44 °F 53% 30.21 in 6 mi North 6.7 mph - -  
11:00 PM 55.4 °F 44.6 °F 67% 30.21 in - North 3.5 mph - N/A   Clear